Location: Marquette
(46.5440°N, 87.3950°W)
Time: 07:44:09
(UTC-04:00)

Daily predictions for brighter satellites

Satellite Brightness Start Highest point End
(mag) Time Altitude Azimuth Time Altitude Azimuth Time Altitude Azimuth
Meteor 2-15 Rocket 4.4 21:00:08 10° N 21:06:15 76° E 21:12:18 10° SSE
Cosmos 1626 Rocket 4.0 21:02:23 10° N 21:06:35 42° ENE 21:10:44 10° SSE
Cosmos 1536 3.8 21:03:00 10° SSW 21:06:56 54° WNW 21:10:54 10° N
H-2A R/B 3.9 21:04:44 10° E 21:07:04 15° ENE 21:09:24 10° NNE
Cosmos 1892 Rocket 4.0 21:02:37 10° NNW 21:07:06 72° W 21:11:34 10° S
Meteor 2-14 Rocket 4.5 21:01:43 10° S 21:07:52 78° E 21:14:02 10° NNE
ATLAS CENTAUR R/B 3.9 21:05:09 10° WSW 21:09:35 31° NW 21:13:54 10° NNE
Meteor 1-29 3.7 21:08:10 10° N 21:11:35 60° WNW 21:15:00 10° SSW
Cosmos 1455 Rocket 3.0 21:09:32 10° S 21:13:51 73° E 21:18:13 10° NNE
Cosmos 2123 Rocket 4.0 21:09:01 10° N 21:15:14 83° E 21:21:25 10° S
Cosmos 1602 Rocket 3.8 21:11:34 10° N 21:15:57 52° ENE 21:20:17 10° SSE
RESURS DK-1 3.4 21:13:05 10° N 21:16:48 30° NE 21:20:28 10° ESE
Cosmos 2084 3.4 21:15:44 10° NW 21:19:43 64° NE 21:23:55 10° SE
USA 215 4.3 21:17:36 10° ENE 21:23:34 39° NNE 21:29:32 10° NW
CZ-4 DEB 3.5 21:23:05 10° SE 21:25:59 35° ENE 21:28:54 10° N
Cosmos 220 Rocket 3.9 21:22:35 10° NNW 21:26:51 81° ENE 21:31:03 10° SSE
NOSS 7 (D) 4.3 21:25:20 10° SW 21:28:43 85° SE 21:32:11 10° NE
Cosmos 1743 4.2 21:26:38 11° SE 21:29:14 19° E 21:32:01 10° NE
Cosmos 1066 Rocket 4.5 21:26:26 10° N 21:31:57 51° ENE 21:37:34 10° SSE
Cosmos 1697 Rocket 3.2 21:30:47 10° S 21:35:57 38° ESE 21:41:07 10° NE
Cosmos 2278 3.9 21:37:40 10° SSW 21:43:21 78° WNW 21:49:05 10° NNE
Resurs 01 Rocket 4.2 21:41:42 10° SW 21:45:09 22° W 21:48:37 10° NW
Cosmos 1153 Rocket 4.4 21:41:59 10° S 21:48:09 74° E 21:54:17 10° NNE
ALOS 3.5 21:45:40 10° S 21:50:05 42° W 21:54:33 10° NNW
ASTEX 1 4.5 21:46:11 10° NNE 21:50:21 26° E 21:52:41 18° SE
EO 1 Delta rocket 4.3 21:46:24 10° N 21:51:03 69° WNW 21:56:15 10° SSW
H-2A R/B 4.2 21:49:32 10° SSW 21:53:12 40° W 21:56:56 10° NNW
Cosmos 1975 2.9 21:49:32 10° S 21:53:39 83° W 21:57:46 10° N
ARGOS 4.3 21:53:32 17° ESE 21:56:20 26° ENE 22:00:43 10° N
Cosmos 2369 4.1 21:51:51 10° SW 21:57:30 68° WNW 22:03:13 10° NNE
USA 186 3.5 21:55:01 10° SSW 21:57:45 29° W 22:00:21 10° NW
Lacrosse 5 rocket 3.0 21:55:48 10° WNW 21:58:48 23° SW 22:01:42 10° S
Cosmos 2298 Rocket 4.2 21:53:38 10° NNW 21:58:58 75° WSW 22:04:08 11° SSE
Cosmos 1980 Rocket 2.7 21:53:54 10° S 21:59:00 36° ESE 22:04:09 10° NE
Cosmos 1802 Rocket 4.2 21:57:26 10° SSE 22:03:34 51° E 22:09:46 10° NNE
Envisat 2.9 22:00:26 14° SSE 22:04:45 74° ENE 22:09:51 10° N
Iridium 4 Rocket 3.7 22:00:03 10° N 22:05:11 69° W 22:09:49 10° S
Cosmos 1937 Rocket 3.5 21:59:58 10° NNW 22:05:17 84° ENE 22:09:16 18° SSE
MetOp-B 4.4 22:07:39 22° SE 22:10:49 49° ENE 22:15:59 10° N
Cosmos 1726 Rocket 4.0 22:14:23 29° SE 22:15:57 39° E 22:20:05 10° NNE
Cosmos 1666 3.7 22:16:27 28° E 22:16:27 28° E 22:19:31 10° NNE
Cosmos 2016 Rocket 4.1 22:11:10 13° SSE 22:16:28 52° E 22:22:27 10° NNE
Cosmos 990 Rocket 3.9 22:12:29 10° NNW 22:17:47 81° ENE 22:20:53 25° SSE
H-2A R/B 3.4 22:17:51 18° E 22:19:10 20° ENE 22:22:45 10° NNE
Tiangong 1 2.0 22:16:28 10° WSW 22:19:16 31° SSW 22:19:21 31° S
Cosmos 2263 Rocket 3.5 22:18:34 10° N 22:23:11 26° NE 22:25:29 20° E
Cosmos 1656 3.9 22:18:15 10° SSW 22:23:50 72° WNW 22:29:24 10° NNE
Cosmos 2227 Rocket 4.3 22:20:31 10° NW 22:24:52 23° WSW 22:29:12 10° SSW
Cosmos 1825 Rocket 3.5 22:22:41 10° N 22:27:09 85° W 22:29:39 25° S
Cosmos 1500 4.0 22:23:32 10° SSW 22:27:12 50° WNW 22:30:54 10° N
Cosmos 2173 Rocket 4.0 22:22:28 10° S 22:28:51 86° E 22:35:13 10° N
Cosmos 1939 Rocket 3.5 22:25:53 17° S 22:28:57 55° W 22:33:04 10° NNW
Cosmos 2322 Rocket 3.2 22:32:37 25° E 22:32:37 25° E 22:36:29 10° NE
Meteor 1-21 4.2 22:26:26 10° N 22:32:14 88° ENE 22:35:57 24° S
ERS-1 Rocket 3.8 22:28:09 10° S 22:32:55 49° W 22:37:48 10° NNW
BREEZE-M DEB (TANK) 4.0 22:29:28 10° WNW 22:33:15 80° SSW 22:39:15 26° ESE
Lacrosse 5 2.5 22:28:59 10° WNW 22:33:51 48° SW 22:36:04 29° S
Cosmos 2098 Rocket 4.1 22:29:39 21° SSE 22:34:10 55° E 22:39:41 10° NNE
SL-08 RB Rocket 4.4 22:33:41 34° E 22:34:41 39° ENE 22:39:00 10° N
Cosmos 1340 2.7 22:31:42 10° NNW 22:35:30 75° W 22:36:49 38° S
Cosmos 1953 Rocket 3.5 22:32:58 10° N 22:37:27 89° W 22:39:18 35° S
SPOT 1/Viking Rocket 3.7 22:36:07 36° SE 22:38:01 57° ENE 22:43:09 10° N
YAOGAN 6 2.5 22:38:50 59° SSE 22:39:27 79° ENE 22:43:11 10° N
Cosmos 967 Rocket 4.5 22:33:35 10° NW 22:39:58 80° WSW 22:43:06 32° SSE
Cosmos 2297 Rocket 4.1 22:35:44 10° NW 22:40:10 24° WSW 22:44:36 10° SSW
SPOT 5 2.9 22:39:47 29° S 22:42:20 80° WSW 22:47:09 10° NNW
H-2A R/B 2.3 22:40:46 31° S 22:42:36 62° WSW 22:46:44 10° NNW
Cosmos 2100 Rocket 4.2 22:36:21 10° SSW 22:42:37 70° W 22:48:50 10° N
Cosmos 2360 4.2 22:38:33 14° S 22:43:16 57° ESE 22:48:54 10° NE
Meteor 2-9 Rocket 4.2 22:41:32 35° SSE 22:43:36 55° E 22:48:52 10° NNE
USA 245 4.5 22:41:38 32° SSE 22:44:41 73° ENE 22:51:00 10° N
PSLV R/B 3.4 22:45:36 65° N 22:45:36 65° N 22:48:18 10° NNW
Cosmos 1763 Rocket 3.3 22:41:43 14° SSW 22:46:06 75° ESE 22:51:12 10° NNE
Cosmos 2227 4.3 22:41:45 10° NNW 22:47:32 77° WSW 22:50:03 35° SSE
Tsikada Rocket 4.0 22:42:10 10° N 22:48:36 70° E 22:51:23 36° SSE
Cosmos 2061 Rocket 4.3 22:43:32 10° SSW 22:49:49 69° W 22:56:04 10° N
Cosmos 1125 Rocket 3.5 22:45:05 10° NNW 22:50:17 65° ENE 22:51:36 47° SE
Cosmos 405 Rocket 3.8 22:47:16 10° N 22:50:05 31° NE 22:50:05 31° NE
Nimbus 7 Rocket 4.4 22:46:04 10° NNE 22:52:11 87° WNW 22:58:15 10° SSW
Cosmos 2228 3.2 22:54:37 51° ENE 22:54:37 51° ENE 22:58:28 10° NNE
RESURS DK-1 3.9 22:51:12 10° NW 22:54:49 29° WSW 22:56:25 22° SSW
Landsat 7 4.2 22:55:38 43° E 22:56:04 44° ENE 23:00:36 10° N
Cosmos 1758 Rocket 3.8 22:51:52 10° NNW 22:56:13 66° W 22:57:28 43° SSW
MetOp-A 4.3 22:54:40 31° S 22:57:15 68° WSW 23:02:37 10° NNW
deb Chang Zheng 4 4.0 22:53:04 10° N 22:57:31 64° WNW 23:00:40 19° SSW
CZ-4 SHROUD 3.9 22:59:05 51° NW 22:59:05 51° NW 23:01:33 10° NNW
CZ-4C R/B 4.3 23:00:05 39° ENE 23:00:05 39° ENE 23:04:06 10° N
Cosmos 1743 4.3 23:01:45 13° SW 23:04:49 35° WNW 23:08:28 10° N
USA 215 3.3 23:03:14 37° ESE 23:06:03 71° NNE 23:12:34 10° NW
Cosmos 841 Rocket 3.5 23:04:54 19° SSW 23:08:41 81° WNW 23:13:56 10° NNE
Cosmos 1816 Rocket 4.4 23:03:48 10° N 23:10:13 80° E 23:12:13 47° SSE
Terra 2.3 23:11:26 44° ENE 23:11:26 44° ENE 23:15:56 10° N
CZ-4 R/B 4.2 23:06:57 10° NNE 23:10:58 48° ENE 23:10:58 48° ENE
BREEZE-M DEB (TANK) 3.4 23:09:47 10° W 23:11:27 32° WSW 23:11:27 32° WSW
Cosmos 1725 Rocket 4.0 23:12:55 31° SSW 23:16:05 84° W 23:22:23 10° N
SL-19 R/B 4.1 23:11:11 10° NNE 23:16:44 89° WNW 23:18:28 45° SSW
Cosmos 1697 Rocket 4.1 23:14:38 10° WSW 23:19:54 39° NW 23:25:11 10° NNE
Meteor 2-17 Rocket 4.3 23:20:18 57° SSE 23:21:28 72° E 23:27:30 10° NNE
Cosmos 2058 Rocket 3.7 23:22:16 40° SW 23:23:31 54° WNW 23:27:58 10° N
Cosmos 540 Rocket 3.9 23:25:35 48° ENE 23:25:35 48° ENE 23:29:36 10° NNE
SL-16 R/B 2.1 23:28:05 67° ESE 23:28:05 67° ESE 23:33:40 10° NNE
Cosmos 372 Rocket 3.8 23:30:03 10° NNW 23:35:12 85° WSW 23:35:15 85° SW
Cosmos 1844 Rocket 4.2 23:31:09 10° N 23:35:33 23° NE 23:36:28 22° ENE
ARGOS 3.7 23:35:04 43° SW 23:36:15 51° W 23:41:32 10° NNW
Spot 4 4.3 23:36:56 52° NE 23:36:56 52° NE 23:41:03 10° N
DELTA 2 DEB (DPAF) 4.4 23:39:04 69° NNW 23:39:04 69° NNW 23:43:02 10° NNW
BREEZE-M DEB (TANK) 3.1 23:29:54 10° WSW 23:38:01 66° SW 23:38:01 66° SW
CARTOSAT-1 4.1 23:41:46 57° N 23:41:46 57° N 23:45:15 10° NNW
Cosmos 1707 4.2 23:37:13 10° N 23:39:34 33° N 23:39:34 33° N
Cosmos 2233 Rocket 3.9 23:39:50 59° SSW 23:41:09 86° W 23:47:27 10° N
Cosmos 1980 Rocket 3.4 23:37:36 10° SW 23:42:57 41° NW 23:48:21 10° NNE
Cosmos 2360 Rocket 3.6 23:45:50 25° ENE 23:45:50 25° ENE 23:48:29 10° NE
